www.pogodaiklimat.ru

Погода и климат >> Архив погоды >> Австралия >> Северная территория >> Уорруви


ПОГОДА в Уорруви

  • Прогноз погоды в Уорруви
  • Монитор погоды в Уорруви

АРХИВ ПОГОДЫ в Уорруви

Время (UTC), дата Ветер
(напр.,м/с)
 
Видим.   Явления Облачность Т
(С)
Тd
(С)
f
(%)
Тe
(С)
Тes
(С)
Комфортность P
(гПа)
Po
(гПа)
Тmin
(С)
Tmax
(С)
R
(мм)
R24
(мм)
S
(см)
02 19.04 В 6 н/о н/о +30.1 +23.3 67 +41 +41 опасность
перегрева
1013.0 1010.8 +25.7
05 19.04 В 6 н/о н/о +30.9 +23.8 66 +42 +42 опасность
перегрева
1010.2 1008.0
08 19.04 В 4 н/о н/о +29.3 +23.0 69 +39 +39 очень
душно
1009.5 1007.3
11 19.04 В 7 н/о н/о +28.5 +23.9 76 +39 +39 очень
душно
1011.0 1008.8
14 19.04 В 6 н/о н/о +27.6 +23.6 79 +38 +38 очень
душно
1011.8 1009.6 +31.5
17 19.04 ЮВ 5 н/о н/о +26.7 +22.8 79 +35 +35 очень
душно
1010.7 1008.5
20 19.04 ЮВ 4 н/о н/о +26.0 +22.5 81 +34 +34 очень
душно
1010.3 1008.1
23 19.04 В 5 н/о н/о +27.7 +23.5 78 +38 +38 очень
душно
1011.6 1009.4
02 20.04 В 6 н/о н/о +30.1 +22.8 65 +40 +40 очень
душно
1011.7 1009.5 +25.9
05 20.04 В 5 н/о н/о +30.4 +22.8 64 +40 +40 очень
душно
1009.4 1007.2
08 20.04 В 3 н/о н/о +29.5 +22.5 66 +39 +39 очень
душно
1008.8 1006.6
11 20.04 СВ 1 н/о н/о +27.8 +23.4 77 +38 +38 очень
душно
1010.3 1008.1
14 20.04 В 3 н/о н/о +28.6 +24.2 77 +40 +40 очень
душно
1010.8 1008.6 +31.3
17 20.04 В 5 н/о н/о +27.2 +23.7 81 +37 +37 очень
душно
1009.7 1007.5
20 20.04 ЮВ 4 н/о н/о +26.0 +23.1 84 +35 +35 очень
душно
1009.6 1007.4
23 20.04 ЮВ 4 н/о н/о +27.7 +23.3 77 +37 +37 очень
душно
1011.2 1009.0
02 21.04 В 6 н/о н/о +30.0 +22.7 65 +40 +40 очень
душно
1011.5 1009.3 +25.7
05 21.04 В 4 н/о н/о +30.6 +23.3 65 +41 +41 опасность
перегрева
1009.3 1007.1
08 21.04 В 4 н/о н/о +29.3 +21.8 64 +38 +38 очень
душно
1008.9 1006.7
11 21.04 СВ 2 н/о н/о +27.8 +23.4 77 +38 +38 очень
душно
1010.8 1008.6
14 21.04 В 2 н/о н/о +27.4 +23.8 81 +38 +38 очень
душно
1011.2 1009.0 +31.1
17 21.04 В 3 н/о н/о +26.6 +22.9 80 +35 +35 очень
душно
1010.3 1008.1
20 21.04 ЮВ 2 н/о н/о +25.3 +22.6 85 +33 +33 очень
душно
1009.6 1007.4
23 21.04 В 4 н/о н/о +28.0 +23.4 76 +38 +38 очень
душно
1011.1 1008.9
02 22.04 В 5 н/о н/о +30.6 +23.0 64 +41 +41 опасность
перегрева
1011.0 1008.8 +25.3
05 22.04 В 5 н/о н/о +31.3 +20.3 52 +38 +38 очень
душно
1009.4 1007.2
08 22.04 В 3 н/о н/о +29.9 +22.3 64 +39 +39 очень
душно
1008.9 1006.7
11 22.04 В 2 н/о н/о +28.4 +24.2 78 +40 +40 очень
душно
1011.0 1008.8
14 22.04 В 7 н/о н/о +28.3 +23.7 76 +39 +39 очень
душно
1011.8 1009.6 +32.1
17 22.04 ЮВ 4 н/о н/о +26.8 +22.6 78 +35 +35 очень
душно
1010.6 1008.4
20 22.04 ЮВ 2 н/о н/о +25.4 +22.1 82 +33 +33 очень
душно
1010.4 1008.2
23 22.04 ЮВ 3 н/о н/о +27.7 +21.3 68 +35 +35 очень
душно
1012.1 1009.9
02 23.04 В 5 н/о н/о +30.6 +22.7 63 +40 +40 очень
душно
1011.7 1009.5 +25.3
05 23.04 В 6 н/о н/о +31.1 +23.5 64 +42 +42 опасность
перегрева
1009.5 1007.3
08 23.04 В 3 н/о н/о +29.9 +23.6 69 +41 +41 опасность
перегрева
1009.4 1007.2
11 23.04 В 4 н/о н/о +28.9 +24.5 77 +41 +41 опасность
перегрева
1011.1 1008.9
14 23.04 ЮВ 6 н/о н/о +28.4 +22.9 72 +38 +38 очень
душно
1011.5 1009.3 +32.0
17 23.04 ЮВ 5 н/о н/о +27.1 +22.5 76 +36 +36 очень
душно
1010.6 1008.4
20 23.04 В 5 н/о н/о +26.5 +22.8 80 +35 +35 очень
душно
1011.1 1008.9
23 23.04 В 4 н/о н/о +28.1 +23.5 76 +38 +38 очень
душно
1012.2 1010.0
02 24.04 В 7 н/о н/о +30.8 +23.7 66 +42 +42 опасность
перегрева
1011.7 1009.5 +26.0
05 24.04 В 5 н/о н/о +31.3 +23.9 65 +43 +43 опасность
перегрева
1009.7 1007.5
08 24.04 В 4 н/о н/о +30.0 +23.7 69 +41 +41 опасность
перегрева
1009.4 1007.2
11 24.04 В 4 н/о н/о +29.2 +24.5 76 +41 +41 опасность
перегрева
1010.7 1008.5
14 24.04 ЮВ 3 н/о н/о +28.6 +25.2 82 +42 +42 опасность
перегрева
1011.1 1008.9 +31.6
17 24.04 В 5 н/о н/о +27.7 +22.4 73 +36 +36 очень
душно
1009.8 1007.6
20 24.04 ЮВ 4 н/о н/о +26.7 +22.8 79 +35 +35 очень
душно
1009.6 1007.4
23 24.04 ЮВ 4 н/о н/о +28.2 +22.9 73 +38 +38 очень
душно
1010.6 1008.4
02 25.04 В 5 н/о н/о +30.4 +23.3 66 +41 +41 опасность
перегрева
1010.2 1008.0 +26.2
05 25.04 В 5 н/о н/о +32.1 +24.2 63 +44 +44 опасность
перегрева
1008.5 1006.3
08 25.04 В 3 н/о н/о +30.7 +22.6 62 +40 +40 очень
душно
1007.9 1005.7
11 25.04 В 2 н/о н/о +28.9 +24.0 75 +40 +40 очень
душно
1010.1 1007.9
14 25.04 ЮВ 5 н/о н/о +28.8 +22.1 67 +37 +37 очень
душно
1010.8 1008.6 +32.4
17 25.04 ЮВ 4 н/о н/о +27.1 +22.1 74 +35 +35 очень
душно
1009.7 1007.5
20 25.04 ЮВ 3 н/о н/о +25.6 +21.9 80 +33 +33 очень
душно
1009.6 1007.4
23 25.04 ЮВ 4 н/о н/о +27.5 +21.5 70 +35 +35 очень
душно
1011.0 1008.8

 

Местоположение метеостанции Уорруви (Северная территория, Австралия): широта -11.65 долгота 133.38 высота над уровнем моря 20 м.

В архиве по умолчанию представлена погода в Уорруви за последнюю неделю. Архивные данные за месяц целиком и за предыдущие месяцы, начиная с января 2011 года, Вы можете получить, выбрав интересующий диапазон дат из раскрывающегося списка и нажав кнопку "Ввод!".


*Определитесь, кто Вы:
робот инопланетянин человек

Внимание! Время в таблицах - всемирное. Для получения местного времени необходимо прибавить поправку, которая равна 9.5 ч.

Смотрите также архив погоды в соседних городах и на ближайших метеорологических станциях:

Погода на Острове Маклер (Северная территория, Австралия) (80 км)
Погода в Манингриде (Северная территория, Австралия) (103 км)
Погода в Джаберу (Северная территория, Австралия) (125 км)
Погода в Милинджимби (Северная территория, Австралия) (174 км)
Погода в Пойнт Стьюарт (Северная территория, Австралия) (176 км)
Погода в Кейп-Доне (Северная территория, Австралия) (179 км)
Погода на Центральном плато Арнем (Северная территория, Австралия) (190 км)
Погода в Галивинку (Северная территория, Австралия) (242 км)
Погода в Булман Уимол (Северная территория, Австралия) (247 км)
Погода в Милд Пойнт (Северная территория, Австралия) (250 км)

Пояснения к столбцам:

Ветер - указаны скорость ветра в м/с - средняя за 10 мин, порывы в срок и между сроками (в фигурных скобках) и направление, откуда дует ветер: С - северный, СВ - северо-восточный, В - восточный, ЮВ - юго-восточный, Ю - южный, ЮЗ - юго-западный, З - западный, СЗ - северо-западный.
Видимость - горизонтальная дальность видимости в метрах или километрах. При видимости от 1 до 10 км при отсутствии осадков обычно наблюдается дымка, при ухудшении видимости до 1 км и менее - туман. В сухую погоду видимость может ухудшаться дымом, пылью или мглою.
Явления - указаны атмосферные явления, наблюдавшиеся в срок или в последний час перед сроком; фигурными скобками обозначены явления, наблюдавшиеся между сроками (за 1-3 часа до срока); квадратными скобками обозначены град или гололедные отложения с указанием их диаметра в мм.
Облачность - указаны через наклонную черту общая и нижняя облачность в баллах и высота нижней границы облаков в метрах; квадратными скобками обозначены формы облаков: Ci - перистые, Cs - перисто-слоистые, Cc - перисто-кучевые, Ac - высококучевые, As - высокослоистые, Sc - слоисто-кучевые, Ns - слоисто-дождевые, Cu - кучевые, Cb - кучево-дождевые. Подробнее классификацию облаков см. в Атласе облаков (PDF).
T - Температура воздуха - температура, измеренная на высоте 2 м над землей.
Td - Температура точки росы - температура, при понижении до которой содержащийся в воздухе водяной пар достигнет насыщения.
f - Относительная влажность воздуха - влажноcть воздуха, измеренная на высоте 2 м над землей.
Te - Эффективная температура - температура, которую ощущает одетый по сезону человек в тени. Характеристика душности погоды. При расчете учитывается влияние влажности воздуха и скорости ветра на теплоощущения человека.
Tes - Эффективная температура на солнце - температура, которую ощущает человек, с поправкой на солнечный нагрев. Характеристика знойности погоды. Зависит от высоты солнца над горизонтом, облачности и скорости ветра. Ночью, в пасмурную погоду, а также при ветре 12 м/с и более поправка равна нулю.
P - Атмосферное давление - приведенное к уровню моря атмосферное давление.
Po - Атмосферное давление - измеренное на уровне метеостанции атмосферное давление.
Tmin - Минимальная температура - минимум температуры воздуха на высоте 2 м над землей.
Tmax - Максимальная температура - максимум температуры воздуха на высоте 2 м над землей.
R - Количество осадков - Количество выпавших осадков за период времени, мм. При наведении курсора мыши на число - период времени, за который выпало указанное количество осадков.
R24 - Количество осадков - Количество выпавших осадков за 24 часа, мм.
S - Снежный покров - Высота снежного покрова, см. При наведении курсора мыши на число - состояние снежного покрова и степень покрытия местности в баллах.